Location: Kott?ru
(16.6209°N, 80.6208°E)
Time: 14:31:27
(UTC+00:00)

Okean 2 Rocket - Pass Details

Date: 18 September 2020
Orbit: 616 x 642 km, 82.5° (Epoch: 30 October)

Event Time Altitude Azimuth Distance (km) Brightness Sun altitude
Rises 13:03:07 0° 152° (SSE) 2,935 6.2 -7.1°
Reaches altitude 10° 13:05:59 10° 133° (SE) 2,028 5.2 -7.8°
Maximum altitude 13:09:00 18° 90° (E) 1,571 4.5 -8.5°
Drops below altitude 10° 13:12:01 10° 48° (NE) 2,026 5.3 -9.3°
Sets 13:14:52 0° 29° (NNE) 2,933 6.3 -9.9°
